Flight Track Log - Related Links

Times and Time Zones

All times are in EDT time to prevent confusion due to time zone crossing. See the DAL1103 flight status page for this flight to view local times or setup timezone preferences in your user account.

Time Position Orientation Groundspeed Altitude Reporting Facility
EDT Latitude Longitude Course Direction KTS MPH feet Rate Location/Type
10:19AM 44.8903 -93.3181 157° South 211 243 2,900  Level Minneapolis Center
10:20AM 44.8456 -93.3967 231° Southwest 269 310 5,300 2,419 Climbing Minneapolis Center
10:21AM 44.7731 -93.4297 198° South 293 337 7,900 2,371 Climbing Minneapolis Center
10:22AM 44.6936 -93.3964 163° South 314 361 10,200 1,790 Climbing Minneapolis Center
10:23AM 44.2886 -92.9342 150° Southeast  Level FlightAware Approximate
10:23AM 44.6014 -93.3044 145° Southeast 351 404 11,600  Level Minneapolis Center
10:24AM 44.1741 -92.8711 157° South  Level FlightAware Approximate
10:24AM 44.5103 -93.2150 145° Southeast 405 466 12,900  Level Minneapolis Center
10:25AM 44.4139 -93.1194 145° Southeast 426 490 15,000 1,935 Climbing Minneapolis Center
10:26AM 44.3156 -93.0214 144° Southeast 431 496 16,900 1,935 Climbing Minneapolis Center
10:27AM 44.1925 -92.9017 145° Southeast 448 516 19,000 1,742 Climbing Minneapolis Center
10:28AM 44.0850 -92.8036 147° Southeast 459 528 20,500 1,403 Climbing Minneapolis Center
10:29AM 43.9661 -92.7242 154° Southeast 471 542 21,900 1,296 Climbing Minneapolis Center
10:30AM 43.8469 -92.6417 153° Southeast 478 550 23,200 1,296 Climbing Minneapolis Center
10:31AM 43.7158 -92.5850 163° South 489 563 24,600 1,355 Climbing Minneapolis Center
10:32AM 43.5847 -92.5647 174° South 478 550 26,000 1,523 Climbing Minneapolis Center
10:34AM 43.4269 -92.5406 174° South 477 549 27,900 1,385 Climbing Chicago Center
10:35AM 43.2975 -92.5197 173° South 473 544 29,000 532 Climbing Chicago Center
10:36AM 43.1725 -92.5000 173° South 460 529 29,000  Level Chicago Center
10:37AM 43.0203 -92.4753 173° South 460 529 29,000  Level Chicago Center
10:38AM 42.8900 -92.4536 173° South 472 543 29,000  Level Chicago Center
10:39AM 42.7633 -92.4344 174° South 471 542 29,000  Level Minneapolis Center
10:40AM 42.6344 -92.4133 173° South 469 540 29,000  Level Chicago Center
10:41AM 42.5136 -92.3608 162° South 473 544 29,000  Level Minneapolis Center
10:42AM 42.4078 -92.2503 142° Southeast 483 556 29,000  Level Minneapolis Center
10:43AM 42.2903 -92.1706 153° Southeast 483 556 29,000  Level Minneapolis Center
10:44AM 42.1422 -92.1111 163° South 475 547 29,000  Level Minneapolis Center
10:45AM 42.0164 -92.0728 167° South 471 542 29,000  Level Minneapolis Center
10:46AM 41.8908 -92.0228 163° South 469 540 29,000  Level Chicago Center
10:47AM 41.7422 -91.9661 164° South 466 536 29,000  Level Chicago Center
10:48AM 41.6186 -91.9200 164° South 465 535 29,000  Level Chicago Center
10:49AM 41.4947 -91.8742 165° South 465 535 29,000  Level Chicago Center
10:50AM 41.3708 -91.8292 165° South 464 534 29,000 242 Level Chicago Center
10:51AM 41.2281 -91.7758 164° South 464 534 29,500 1,016 Climbing Chicago Center
10:52AM 41.1033 -91.7300 165° South 466 536 31,100 1,258 Climbing Chicago Center
10:53AM 40.9828 -91.6883 165° South 456 525 32,100 823 Climbing Chicago Center
10:54AM 40.8639 -91.6444 164° South 450 518 32,800 435 Climbing Chicago Center
10:55AM 40.7456 -91.6014 165° South 447 514 33,000 97 Climbing Chicago Center
10:56AM 40.6056 -91.5344 160° South 451 519 33,000  Level Chicago Center
10:57AM 40.5053 -91.4317 142° Southeast 456 525 33,000  Level Chicago Center
10:58AM 40.4256 -91.3453 140° Southeast 460 529 33,000  Level Kansas City Center
10:59AM 40.3067 -91.2156 140° Southeast 465 535 33,000  Level Kansas City Center
11:00AM 40.2042 -91.1011 140° Southeast 472 543 33,000  Level Kansas City Center
11:01AM 40.1053 -90.9886 139° Southeast 474 545 33,000  Level Kansas City Center
11:04AM 39.9078 -90.7667 139° Southeast 473 544 33,000  Level Kansas City Center
11:05AM 39.7853 -90.6303 139° Southeast 481 554 33,000  Level Kansas City Center
11:06AM 39.6839 -90.5164 139° Southeast 471 542 33,000  Level Kansas City Center
11:07AM 39.5839 -90.4053 139° Southeast 471 542 33,000  Level Kansas City Center
11:08AM 39.4833 -90.2931 139° Southeast 472 543 33,000  Level Kansas City Center
11:09AM 39.3808 -90.1822 140° Southeast 475 547 33,000  Level Kansas City Center
11:10AM 39.2781 -90.0711 140° Southeast 476 548 33,000  Level Kansas City Center
11:11AM 39.1686 -89.9542 140° Southeast 481 554 33,000  Level Kansas City Center
11:12AM 39.0672 -89.8422 139° Southeast 477 549 33,000  Level Kansas City Center
11:13AM 38.9633 -89.7319 140° Southeast 482 555 33,000  Level Kansas City Center
11:14AM 38.8483 -89.6133 141° Southeast 485 558 33,000  Level Kansas City Center
11:15AM 38.7442 -89.5031 140° Southeast 486 559 33,000  Level Kansas City Center
11:16AM 38.6236 -89.3733 140° Southeast 482 555 33,000  Level Kansas City Center
11:17AM 38.5236 -89.2708 141° Southeast 483 556 33,000  Level Kansas City Center
11:18AM 38.4211 -89.1619 140° Southeast 483 556 33,000  Level Kansas City Center
11:19AM 38.2944 -89.0533 146° Southeast 475 547 33,000  Level Kansas City Center
11:20AM 38.1806 -88.9650 149° Southeast 476 548 33,000  Level Kansas City Center
11:21AM 38.0722 -88.8739 146° Southeast 475 547 33,000  Level Kansas City Center
11:22AM 37.9614 -88.7844 148° Southeast 473 544 33,000  Level Kansas City Center
11:23AM 37.8464 -88.6900 147° Southeast 473 544 33,000  Level Kansas City Center
11:24AM 37.7353 -88.6014 148° Southeast 467 537 33,000  Level Kansas City Center
11:25AM 37.6222 -88.5094 147° Southeast 476 548 33,000  Level Kansas City Center
11:26AM 37.4992 -88.4156 149° Southeast 477 549 33,000  Level Memphis Center
11:27AM 37.3817 -88.3397 153° Southeast 477 549 33,000  Level Memphis Center
11:28AM 37.2644 -88.2658 153° Southeast 475 547 33,000  Level Memphis Center
11:29AM 37.1461 -88.1906 153° Southeast 475 547 33,000  Level Memphis Center
11:30AM 37.0306 -88.1186 154° Southeast 468 539 33,000  Level Memphis Center
11:31AM 36.9094 -88.0442 154° Southeast 465 535 33,000  Level Memphis Center
11:32AM 36.7939 -87.9692 153° Southeast 465 535 33,000  Level Memphis Center
11:33AM 36.6578 -87.8828 153° Southeast 465 535 33,000  Level Memphis Center
11:34AM 36.5414 -87.8092 153° Southeast 465 535 33,000  Level Memphis Center
11:36AM 36.4247 -87.7364 153° Southeast 465 535 33,000  Level Memphis Center
11:37AM 36.3086 -87.6642 153° Southeast 465 535 33,000  Level Memphis Center
11:38AM 36.1919 -87.5922 154° Southeast 465 535 33,000  Level Memphis Center
11:39AM 36.0764 -87.5217 154° Southeast 465 535 33,000  Level Memphis Center
11:40AM 35.9406 -87.4386 154° Southeast 465 535 33,000  Level Memphis Center
11:41AM 35.8233 -87.3669 154° Southeast 465 535 33,000  Level Memphis Center
11:42AM 35.7064 -87.2958 154° Southeast 465 535 33,000  Level Memphis Center
11:43AM 35.5886 -87.2244 154° Southeast 466 536 33,000  Level Memphis Center
11:44AM 35.4708 -87.1528 154° Southeast 467 537 33,000  Level Memphis Center
11:45AM 35.3375 -87.0714 154° Southeast 467 537 33,000  Level Memphis Center
11:46AM 35.2211 -87.0011 154° Southeast 467 537 33,000  Level Memphis Center
11:47AM 35.1042 -86.9297 153° Southeast 467 537 33,000  Level Memphis Center
11:48AM 34.9861 -86.8597 154° Southeast 468 539 33,000  Level Memphis Center
11:49AM 34.8689 -86.7881 153° Southeast 468 539 33,000  Level Memphis Center
11:50AM 34.7525 -86.7197 154° Southeast 466 536 33,000  Level Memphis Center
11:51AM 34.6364 -86.6522 154° Southeast 464 534 33,000  Level Memphis Center
11:52AM 34.4975 -86.5703 154° Southeast 463 533 33,000  Level Memphis Center
11:53AM 34.3806 -86.5017 154° Southeast 462 532 33,000  Level Memphis Center
11:54AM 34.2644 -86.4353 155° Southeast 462 532 33,000  Level Memphis Center
11:55AM 34.1467 -86.3672 154° Southeast 463 533 33,000  Level Memphis Center
11:56AM 34.0736 -86.3233 154° Southeast 462 532 33,000  Level Atlanta Center
11:57AM 33.9581 -86.2528 153° Southeast 462 532 33,000  Level Atlanta Center
11:58AM 33.8422 -86.1897 156° South 462 532 33,000  Level Atlanta Center
11:59AM 33.7264 -86.1244 155° Southeast 462 532 33,000  Level Atlanta Center
12:00PM 33.6128 -86.0542 153° Southeast 462 532 33,000  Level Atlanta Center
12:01PM 33.4867 -85.9842 155° Southeast 462 532 33,000  Level Atlanta Center
12:02PM 33.3728 -85.9194 155° Southeast 457 526 33,000  Level Atlanta Center
12:03PM 33.2569 -85.8497 153° Southeast 462 532 33,000  Level Atlanta Center
12:04PM 33.1431 -85.7878 156° South 457 526 33,000  Level Atlanta Center
12:05PM 33.0250 -85.7236 155° Southeast 457 526 33,000  Level Atlanta Center
12:06PM 32.9092 -85.6594 155° Southeast 457 526 33,000  Level Atlanta Center
12:07PM 32.8178 -85.6058 154° Southeast 457 526 33,000  Level Atlanta Center
12:08PM 32.6936 -85.5344 154° Southeast 457 526 33,000  Level Atlanta Center
12:09PM 32.5753 -85.4708 156° South 457 526 33,000  Level Atlanta Center
12:10PM 32.4592 -85.4075 155° Southeast 457 526 33,000  Level Atlanta Center
12:11PM 32.3472 -85.3369 152° Southeast 457 526 33,000  Level Atlanta Center
12:12PM 32.2353 -85.2714 154° Southeast 457 526 33,000  Level Atlanta Center
12:13PM 32.1211 -85.2061 154° Southeast 457 526 33,000  Level Atlanta Center
12:14PM 32.0108 -85.1436 154° Southeast 450 518 33,000  Level Atlanta Center
12:15PM 31.8497 -85.0497 154° Southeast 462 532 33,000  Level Jacksonville Center
12:16PM 31.7403 -84.9789 151° Southeast 455 524 33,000  Level Jacksonville Center
12:17PM 31.6328 -84.8983 147° Southeast 447 514 33,000  Level Jacksonville Center
12:18PM 31.5275 -84.8206 148° Southeast 447 514 33,000  Level Jacksonville Center
12:19PM 31.4203 -84.7403 147° Southeast 452 520 33,000  Level Jacksonville Center
12:20PM 31.3147 -84.6628 148° Southeast 452 520 33,000  Level Jacksonville Center
12:21PM 31.2094 -84.5833 147° Southeast 452 520 33,000  Level Jacksonville Center
12:22PM 31.1019 -84.5061 148° Southeast 452 520 33,000  Level Jacksonville Center
12:23PM 30.9964 -84.4267 147° Southeast 452 520 33,000  Level Jacksonville Center
12:24PM 30.8889 -84.3475 148° Southeast 452 520 33,000  Level Jacksonville Center
12:25PM 30.7831 -84.2686 147° Southeast 452 520 33,000  Level Jacksonville Center
12:26PM 30.6733 -84.1992 151° Southeast 447 514 33,000  Level Jacksonville Center
12:27PM 30.5611 -84.1278 151° Southeast 447 514 33,000  Level Jacksonville Center
12:28PM 30.4636 -84.0661 151° Southeast 447 514 33,000  Level Jacksonville Center
12:29PM 30.3494 -83.9928 151° Southeast 458 527 33,000  Level Jacksonville Center
12:30PM 30.2353 -83.9217 152° Southeast 463 533 33,000  Level Jacksonville Center
12:31PM 30.1231 -83.8531 152° Southeast 463 533 33,000  Level Jacksonville Center
12:32PM 30.0150 -83.7825 151° Southeast 457 526 33,000  Level Jacksonville Center
12:33PM 29.9047 -83.7144 152° Southeast 457 526 33,000 545 Level Jacksonville Center
12:34PM 29.7925 -83.6442 151° Southeast 457 526 34,100 1,008 Climbing Jacksonville Center
12:35PM 29.6822 -83.5764 152° Southeast 457 526 35,000 450 Climbing Jacksonville Center
12:36PM 29.5739 -83.5086 151° Southeast 452 520 35,000  Level Jacksonville Center
12:37PM 29.4636 -83.4389 151° Southeast 452 520 35,000  Level Jacksonville Center
12:38PM 29.3553 -83.3714 151° Southeast 452 520 35,000  Level Jacksonville Center
12:39PM 29.2450 -83.3044 152° Southeast 452 520 35,000  Level Jacksonville Center
12:40PM 29.1386 -83.2372 151° Southeast 446 513 35,000  Level Jacksonville Center
12:41PM 29.0325 -83.1706 151° Southeast 446 513 35,000  Level Jacksonville Center
12:42PM 28.9281 -83.1061 152° Southeast 434 499 35,000  Level Jacksonville Center
12:43PM 28.8197 -83.0347 150° Southeast 439 505 35,000  Level Jacksonville Center
12:44PM 28.7156 -82.9706 152° Southeast 439 505 35,000  Level Jacksonville Center
12:45PM 28.5986 -82.8997 152° Southeast 431 496 35,000  Level Jacksonville Center
12:47PM 28.4289 -82.7931 151° Southeast 435 501 35,000  Level Miami Center
12:48PM 28.3228 -82.7275 151° Southeast 435 501 35,000  Level Miami Center
12:49PM 28.2156 -82.6625 152° Southeast 436 502 35,000  Level Miami Center
12:50PM 28.1072 -82.5981 152° Southeast 438 504 35,000  Level Miami Center
12:51PM 27.9994 -82.5342 152° Southeast 438 504 35,000  Level Miami Center
12:52PM 27.8633 -82.4756 159° South 438 504 35,000 -339 Level Miami Center
12:53PM 27.7500 -82.4350 162° South 437 503 34,300 -1,317 Descending Miami Center
12:54PM 27.6289 -82.3903 162° South 438 504 32,300 -2,049 Descending Miami Center
12:55PM 27.5061 -82.3442 162° South 443 510 30,100 -2,081 Descending Miami Center
12:56PM 27.3936 -82.2603 146° Southeast 462 532 28,000 -2,032 Descending Miami Center
12:57PM 27.2853 -82.1678 143° Southeast 465 535 25,900 -1,742 Descending Miami Center
12:58PM 27.1858 -82.0828 143° Southeast 466 536 24,400 -927 Descending Miami Center
12:59PM 27.0806 -81.9942 143° Southeast 457 526 24,000 -293 Descending Miami Center
01:00PM 26.9847 -81.9125 143° Southeast 453 521 23,800 -1,113 Descending Miami Center
01:01PM 26.8858 -81.8289 143° Southeast 449 517 21,700 -2,032 Descending Miami Center
01:02PM 26.7897 -81.7481 143° Southeast 436 502 19,600 -1,306 Descending Miami Center
01:03PM 26.6758 -81.6536 143° Southeast 427 491 19,000 -293 Descending Miami Center
01:04PM 26.5811 -81.5756 144° Southeast 426 490 19,000 -488 Level Miami Center
01:05PM 26.4858 -81.4958 143° Southeast 423 487 18,000 -1,500 Descending Miami Center
01:06PM 26.3875 -81.4147 144° Southeast 413 475 15,900 -2,226 Descending Miami Center
01:07PM 26.3025 -81.3356 140° Southeast 402 463 13,400 -2,758 Descending Miami Center
01:08PM 26.2431 -81.2269 121° Southeast 382 440 10,200 -1,694 Descending Miami Center
01:09PM 26.1978 -81.1417 121° Southeast 306 352 9,900 -852 Descending Miami Center
01:11PM 26.1314 -81.0172 121° Southeast 288 331 8,000 -1,073 Descending Miami Center
01:12PM 26.1206 -80.9894 113° Southeast 290 334 7,700 -982 Descending Miami Center
01:12PM 26.1156 -80.9439 97° East 287 330 7,100 -1,258 Descending Miami Center
01:13PM 26.1119 -80.9017 95° East 286 329 6,400 -904 Descending Miami Center
01:13PM 26.1058 -80.8364 96° East 280 322 6,000 -581 Descending Miami Center
01:14PM 26.1022 -80.7992 96° East 279 321 5,800 -625 Descending Miami Center
01:14PM 26.1003 -80.7664 94° East 278 320 5,500 -677 Descending Miami Center
01:15PM 26.0958 -80.7144 95° East 275 316 5,100 -448 Descending Miami Center
01:15PM 26.0914 -80.6775 98° East 253 291 5,000 -97 Descending Miami Center
01:16PM 26.0886 -80.6400 95° East 243 280 5,000  Level Miami Center
01:16PM 26.0839 -80.5981 97° East 227 261 5,000  Level Miami Center
01:17PM 26.0822 -80.5708 94° East 230 265 5,000  Level Miami Center
01:17PM 26.0794 -80.5372 95° East 228 262 5,000  Level Miami Center
01:18PM 26.0789 -80.5000 91° East 229 264 5,000  Level Miami Center
01:18PM 26.0781 -80.4631 91° East 230 265 5,000 -387 Level Miami Center
01:19PM 26.0783 -80.4292 89° East 229 264 4,600 -1,082 Descending Miami Center
01:19PM 26.0786 -80.3911 90° East 236 272 3,900 -1,452 Descending Miami Center
01:20PM 26.0783 -80.3514 90° East 252 290 3,100 -1,475 Descending Miami Center
01:20PM 26.0775 -80.3097 91° East 263 303 2,400 -1,258 Descending Miami Center
01:21PM 26.0778 -80.2767 89° East 242 278 1,800 -1,000 Descending Miami Center
01:21PM 26.0767 -80.2542 93° East 180 207 1,500 -885 Descending Miami Center
01:22PM 26.0769 -80.2194 89° East 152 175 900 -689 Descending Miami Center
01:22PM 26.0775 -80.2100 86° East 127 146 800 -581 Descending Miami Center
01:23PM 26.0767 -80.1786 92° East 143 165 300 -638 Descending Miami Center

Login

Don't have an account? Register now (free) for customized features, flight alerts, and more!